Flag for Cyprus Weather past 2 weeks in Paphos, Cyprus

Now
82 °F

Clear.


Feels Like: 92 °F
Forecast: 78 / 88 °F
Wind: 8 mph from Northwest

Location: Paphos Airport

Current Time: Aug 4, 2015 at 11:03:10 PM

Latest Report: Aug 4, 2015 at 10:30 PM


Visibility: 4 mi

Pressure: 29.74 "Hg

Humidity: 89%

Dew point: 79 °F

Location of PaphosLocation

Historic Weather in Paphos — Graph

°F

Paphos temperature yesterday

Maximum temperature yesterday: 95 °F (at 11:00 AM)
Minimum temperature yesterday: 79 °F (at 4:30 AM)
Average temperature yesterday: 87 °F

Past Weeks' High & Low Weather Summary

 TemperatureHumidityPressure
High95 °F (Aug 3, 11:00 AM)94% (Jul 29, 3:00 AM)29.83 "Hg (Jul 29, 3:00 AM)
Low68 °F (Jul 21, 3:00 AM)36% (Jul 22, 2:30 AM)29.65 "Hg (Jul 21, 1:00 AM)
Average82 °F74%29.72 "Hg
* Reported Jul 20 10:00 PM — Aug 4 10:00 PM, Paphos, Weather by CustomWeather, © 2015

Note: Actual official high and low records may vary slightly from our data, if they occured in-between our weather recording intervals... More about our weather records

Advertising

Paphos weather history for previous 24 hours

 ConditionsComfort  
Time TempWeatherWind HumidityBarometerVisibility
10:00 PM
Tue, Aug 4
82 °FClear.9 mph94%29.74 "Hg4 mi
9:30 PM84 °FClear.9 mph89%29.74 "Hg4 mi
9:00 PM84 °FPassing clouds.12 mph89%29.74 "Hg5 mi
8:30 PM84 °FPassing clouds.12 mph89%29.71 "Hg5 mi
8:00 PM86 °FScattered clouds.14 mph84%29.71 "Hg5 mi
7:30 PM86 °FScattered clouds.12 mph84%29.71 "Hg5 mi
7:00 PM86 °FScattered clouds.12 mph89%29.71 "Hg5 mi
6:30 PM88 °FScattered clouds.10 mph84%29.71 "HgN/A
6:00 PM88 °FPassing clouds.14 mph84%29.71 "HgN/A
5:30 PM88 °FPassing clouds.15 mph84%29.71 "HgN/A
5:00 PM90 °FPassing clouds.16 mph79%29.71 "HgN/A
4:30 PM91 °FPassing clouds.15 mph75%29.71 "HgN/A
4:00 PM91 °FPassing clouds.16 mph75%29.71 "HgN/A
3:30 PM91 °FPassing clouds.17 mph75%29.71 "HgN/A
3:00 PM91 °FPassing clouds.18 mph75%29.71 "HgN/A
2:30 PM93 °FPassing clouds.16 mph67%29.71 "HgN/A
2:00 PM91 °FPassing clouds.15 mph75%29.71 "HgN/A
1:30 PM91 °FPassing clouds.16 mph75%29.74 "HgN/A
1:00 PM91 °FPassing clouds.16 mph75%29.74 "HgN/A
12:30 PM91 °FPassing clouds.16 mph75%29.74 "HgN/A
12:00 PM90 °FSunny.18 mph79%29.74 "Hg10 mi
11:30 AM90 °FSunny.16 mph79%29.74 "Hg10 mi
11:00 AM90 °FSunny.15 mph79%29.74 "Hg10 mi
10:30 AM90 °FSunny.12 mph79%29.74 "Hg10 mi
10:00 AM88 °FSunny.12 mph79%29.77 "Hg10 mi
9:30 AM88 °FSunny.13 mph75%29.74 "Hg10 mi
9:00 AM86 °FPassing clouds.7 mph79%29.74 "HgN/A
8:30 AM88 °FPassing clouds.6 mph75%29.74 "HgN/A
8:00 AM88 °FPassing clouds.6 mph66%29.74 "HgN/A
7:30 AM84 °FSunny.3 mph48%29.74 "Hg10 mi
7:00 AM81 °FClear.6 mph54%29.74 "Hg10 mi
6:30 AM77 °FClear.5 mph57%29.71 "Hg10 mi
6:00 AM77 °FClear.5 mph61%29.71 "Hg10 mi
5:30 AM77 °FWarm.5 mph61%29.71 "HgN/A
5:00 AM77 °FWarm.2 mph61%29.71 "HgN/A
4:30 AM77 °FWarm.2 mph65%29.71 "HgN/A
4:00 AM79 °FWarm.5 mph65%29.71 "HgN/A
3:30 AM79 °FWarm.6 mph61%29.71 "HgN/A
3:00 AM81 °FClear.6 mph62%29.71 "Hg10 mi
2:30 AM79 °FClear.3 mph61%29.71 "Hg10 mi
2:00 AM77 °FClear.3 mph65%29.71 "Hg10 mi
1:30 AM79 °FClear.5 mph58%29.71 "Hg10 mi
1:00 AM79 °FClear.5 mph58%29.74 "Hg10 mi
12:30 AM81 °FClear.5 mph58%29.74 "Hg10 mi
12:00 AM79 °FClear.5 mph70%29.74 "Hg10 mi
11:30 PM
Mon, Aug 3
79 °FClear.2 mph70%29.74 "Hg10 mi
11:00 PM81 °FClear.5 mph74%29.74 "Hg10 mi
Weather by CustomWeather, © 2015

See weather overviewHow to use our weather pages